GW1515 Weather Reports


Display with metric or nautical units.
time (UTC)temp
F
wind
direction
speed
MPH
gust
MPH
rain 1hr
in
rain 24hr
in
rain mn
in
humidity
%
barometer
mb
20260508161851 62 252 0.0 4.0 0.00 0.00 0.00 69 1010.7
20260508161349 60 229 2.0 7.0 0.00 0.00 0.00 72 1010.5
20260508160846 60 162 4.0 7.0 0.00 0.00 0.00 70 1010.5
20260508160344 61 221 3.0 4.0 0.00 0.00 0.00 72 1010.5
20260508155840 60 80 2.0 6.0 0.00 0.00 0.00 70 1010.6
20260508155338 61 166 5.0 8.0 0.00 0.00 0.00 70 1010.6
20260508154834 61 105 4.0 10.0 0.00 0.00 0.00 71 1010.7
20260508154332 60 149 6.0 9.0 0.00 0.00 0.00 72 1010.7
20260508153828 60 196 2.0 3.0 0.00 0.00 0.00 72 1010.9
20260508153326 60 321 1.0 4.0 0.00 0.00 0.00 73 1010.6
20260508152821 60 204 5.0 7.0 0.00 0.00 0.00 72 1010.7
20260508152318 60 177 4.0 7.0 0.00 0.00 0.00 74 1010.9
20260508151814 61 190 3.0 4.0 0.00 0.00 0.00 70 1010.8
20260508151312 60 203 5.0 8.0 0.00 0.00 0.00 72 1010.8
20260508150808 60 142 5.0 7.0 0.00 0.00 0.00 74 1011.0
20260508150305 61 153 5.0 8.0 0.00 0.00 0.00 73 1011.0
20260508145802 59 171 2.0 9.0 0.00 0.00 0.00 75 1011.0
20260508145257 60 135 5.0 8.0 0.00 0.00 0.00 74 1010.8
20260508144754 59 86 0.0 4.0 0.00 0.00 0.00 77 1011.1
20260508144252 59 232 1.0 4.0 0.00 0.00 0.00 76 1011.1
20260508143749 58 126 3.0 5.0 0.00 0.00 0.00 79 1011.0
20260508143246 57 223 3.0 4.0 0.00 0.00 0.00 81 1011.1
20260508142742 57 206 5.0 9.0 0.00 0.00 0.00 79 1010.9
20260508142240 57 185 0.0 7.0 0.00 0.00 0.00 81 1011.0
20260508141736 57 161 3.0 8.0 0.00 0.00 0.00 81 1011.0
20260508141234 57 185 2.0 8.0 0.00 0.00 0.00 80 1011.1
20260508140731 56 177 4.0 6.0 0.00 0.00 0.00 81 1011.1
20260508140227 56 185 3.0 5.0 0.00 0.00 0.00 83 1011.0
20260508135724 56 217 7.0 7.0 0.00 0.00 0.00 81 1011.2
20260508135220 55 162 3.0 7.0 0.00 0.00 0.00 84 1011.2
20260508134715 55 203 4.0 6.0 0.00 0.00 0.00 84 1011.2
20260508134213 54 140 2.0 6.0 0.00 0.00 0.00 86 1011.2
20260508133709 54 150 5.0 7.0 0.00 0.00 0.00 86 1011.4
20260508133207 53 221 4.0 5.0 0.00 0.00 0.00 86 1011.2
20260508132705 53 157 2.0 3.0 0.00 0.00 0.00 87 1011.1
20260508132202 53 141 3.0 6.0 0.00 0.00 0.00 87 1011.4
20260508131657 53 157 4.0 7.0 0.00 0.00 0.00 87 1011.2
20260508131154 53 106 3.0 5.0 0.00 0.00 0.00 87 1011.2
20260508130650 52 124 3.0 7.0 0.00 0.00 0.00 87 1011.3
20260508130148 51 109 3.0 7.0 0.00 0.00 0.00 88 1011.3
20260508125643 50 131 2.0 5.0 0.00 0.00 0.00 89 1011.2
20260508125140 52 109 2.0 3.0 0.00 0.00 0.00 89 1011.1
20260508124638 50 126 3.0 5.0 0.00 0.00 0.00 90 1011.2
20260508124135 49 115 4.0 6.0 0.00 0.00 0.00 90 1011.2
20260508123634 49 106 4.0 5.0 0.00 0.00 0.00 90 1011.3
20260508123131 49 114 2.0 4.0 0.00 0.00 0.00 89 1011.2
20260508122627 49 135 3.0 5.0 0.00 0.00 0.00 88 1011.6
20260508122124 49 160 3.0 5.0 0.00 0.00 0.00 88 1011.3
20260508121622 49 113 4.0 6.0 0.00 0.00 0.00 88 1011.2
20260508121120 49 115 3.0 5.0 0.00 0.00 0.00 89 1011.1
20260508120617 49 152 3.0 6.0 0.00 0.00 0.00 90 1011.3
20260508120115 48 123 3.0 4.0 0.00 0.00 0.00 91 1011.2
20260508115612 47 121 4.0 5.0 0.00 0.00 0.00 91 1011.1
20260508115109 47 128 4.0 6.0 0.00 0.00 0.00 92 1011.2
20260508114606 47 95 2.0 3.0 0.00 0.00 0.00 92 1011.2
20260508114102 47 14 1.0 3.0 0.00 0.00 0.00 92 1011.2
20260508113600 46 123 1.0 3.0 0.00 0.00 0.00 92 1011.2
20260508113058 46 108 2.0 3.0 0.00 0.00 0.00 92 1010.9
20260508112553 46 136 2.0 4.0 0.00 0.00 0.00 92 1010.9
20260508112051 46 101 2.0 3.0 0.00 0.00 0.00 92 1010.9
20260508111548 46 96 0.0 3.0 0.00 0.00 0.00 92 1011.1
20260508111045 46 78 2.0 3.0 0.00 0.00 0.00 92 1010.8
20260508110543 46 97 0.0 4.0 0.00 0.00 0.00 92 1011.0
20260508110038 46 31 3.0 4.0 0.00 0.00 0.00 92 1011.0
20260508105533 46 80 2.0 4.0 0.00 0.00 0.00 92 1010.9
20260508105031 46 52 2.0 3.0 0.00 0.00 0.00 92 1010.9
20260508104529 46 52 1.0 3.0 0.00 0.00 0.00 92 1010.7
20260508104025 46 34 1.0 2.0 0.00 0.00 0.00 92 1010.9
20260508103522 46 111 1.0 3.0 0.00 0.00 0.00 92 1010.7
20260508103019 46 104 2.0 3.0 0.00 0.00 0.00 91 1010.7
20260508102517 46 93 1.0 3.0 0.00 0.00 0.00 91 1011.0
20260508102015 46 119 1.0 3.0 0.00 0.00 0.00 91 1011.0
20260508101512 46 169 3.0 4.0 0.00 0.00 0.00 92 1010.9
20260508101009 45 198 3.0 3.0 0.00 0.00 0.00 93 1010.9
20260508100507 45 193 2.0 3.0 0.00 0.00 0.00 93 1010.7
20260508100004 44 103 2.0 2.0 0.00 0.00 0.00 93 1011.1
20260508095501 44 122 2.0 2.0 0.00 0.00 0.00 93 1010.7
20260508094957 44 116 0.0 3.0 0.00 0.00 0.00 93 1011.1
20260508094454 44 89 0.0 2.0 0.00 0.00 0.00 93 1011.0
20260508093951 44 89 0.0 2.0 0.00 0.00 0.00 92 1011.3
20260508093448 44 32 0.0 2.0 0.00 0.00 0.00 92 1011.2
20260508092946 44 135 0.0 2.0 0.00 0.00 0.00 92 1011.4
20260508092443 45 282 0.0 2.0 0.00 0.00 0.00 92 1011.4
20260508091942 45 64 0.0 2.0 0.00 0.00 0.00 92 1011.2
20260508091438 45 12 1.0 2.0 0.00 0.00 0.00 92 1011.2
20260508090935 44 39 0.0 2.0 0.00 0.00 0.00 92 1011.3
20260508090434 44 44 0.0 1.0 0.00 0.00 0.00 92 1011.4
20260508085929 44 190 0.0 2.0 0.00 0.00 0.00 92 1011.3
20260508085426 44 157 0.0 2.0 0.00 0.00 0.00 91 1011.3
20260508084923 44 152 0.0 2.0 0.00 0.00 0.00 91 1011.3
20260508084420 45 0 1.0 2.0 0.00 0.00 0.00 91 1011.4
20260508083918 45 104 0.0 1.0 0.00 0.00 0.00 89 1011.2
20260508083415 46 358 1.0 2.0 0.00 0.00 0.00 89 1011.3
20260508082914 46 5 1.0 3.0 0.00 0.00 0.00 88 1011.4
20260508082412 47 288 0.0 2.0 0.00 0.00 0.00 87 1011.4
20260508081910 48 294 0.0 3.0 0.00 0.00 0.00 87 1011.5
20260508081407 47 251 2.0 3.0 0.00 0.00 0.00 87 1011.3
20260508080903 48 207 2.0 3.0 0.00 0.00 0.00 86 1011.3
20260508080401 48 200 0.0 3.0 0.00 0.00 0.00 86 1011.3
20260508075857 48 200 2.0 5.0 0.00 0.00 0.00 86 1011.2
20260508075355 47 202 2.0 3.0 0.00 0.00 0.00 88 1011.2
20260508074852 47 166 0.0 1.0 0.00 0.00 0.00 89 1011.3
20260508074349 46 180 0.0 1.0 0.00 0.00 0.00 89 1011.4
20260508073846 46 38 0.0 1.0 0.00 0.00 0.00 88 1011.5
20260508073344 47 309 0.0 2.0 0.00 0.00 0.00 87 1011.7
20260508072840 48 282 0.0 3.0 0.00 0.00 0.00 87 1011.7
20260508072337 47 246 1.0 3.0 0.00 0.00 0.00 87 1011.5
20260508071834 48 176 0.0 2.0 0.00 0.00 0.00 86 1011.6
20260508071333 48 277 1.0 3.0 0.00 0.00 0.00 86 1011.6
20260508070830 48 254 2.0 3.0 0.00 0.00 0.00 86 1011.6
20260508070328 48 196 1.0 3.0 0.00 0.00 0.00 87 1011.7
20260508065825 48 199 1.0 4.0 0.00 0.00 0.00 86 1011.5
20260508065323 48 258 2.0 4.0 0.00 0.00 0.00 87 1011.6
20260508064821 48 255 1.0 3.0 0.00 0.00 0.00 86 1011.7
20260508064318 48 178 0.0 5.0 0.00 0.00 0.00 86 1011.8
20260508063816 48 252 0.0 3.0 0.00 0.00 0.00 86 1011.9
20260508063314 48 288 1.0 2.0 0.00 0.00 0.00 86 1011.7
20260508062810 48 253 2.0 4.0 0.00 0.00 0.00 85 1011.7
20260508062308 48 255 2.0 3.0 0.00 0.00 0.00 85 1011.7
20260508061804 48 229 1.0 3.0 0.00 0.00 0.00 85 1011.7
20260508061302 48 268 0.0 3.0 0.00 0.00 0.00 85 1011.7
20260508060758 48 235 0.0 3.0 0.00 0.00 0.00 84 1012.0
20260508060256 48 215 0.0 5.0 0.00 0.00 0.00 84 1011.9
20260508055751 49 264 2.0 3.0 0.00 0.00 0.00 83 1011.8
20260508055249 49 251 2.0 4.0 0.00 0.00 0.00 83 1011.8
20260508054745 49 252 1.0 3.0 0.00 0.00 0.00 83 1011.6
20260508054243 49 246 2.0 7.0 0.00 0.00 0.00 82 1011.7
20260508053740 49 249 2.0 5.0 0.00 0.00 0.00 83 1011.7
20260508053237 48 231 1.0 3.0 0.00 0.00 0.00 83 1011.6
20260508052734 48 239 2.0 3.0 0.00 0.00 0.00 83 1011.5
20260508052231 48 219 0.0 2.0 0.00 0.00 0.00 83 1011.7
20260508051727 48 266 1.0 2.0 0.00 0.00 0.00 83 1011.5
20260508051223 48 257 0.0 1.0 0.00 0.00 0.00 83 1011.7
20260508050720 48 229 0.0 1.0 0.00 0.00 0.00 83 1011.6
20260508050217 48 252 0.0 2.0 0.00 0.00 0.00 83 1011.6
20260508045712 49 159 0.0 2.0 0.00 0.00 0.00 82 1011.7
20260508045210 49 259 1.0 2.0 0.00 0.00 0.00 82 1011.5
20260508044708 49 261 0.0 2.0 0.00 0.00 0.00 82 1011.6
20260508044204 48 233 0.0 3.0 0.00 0.00 0.00 83 1011.5
20260508043700 48 36 2.0 4.0 0.00 0.00 0.00 83 1011.5
20260508043158 48 232 0.0 1.0 0.00 0.00 0.00 83 1011.5
20260508042654 48 150 3.0 3.0 0.00 0.00 0.00 83 1011.5
20260508042152 48 35 2.0 3.0 0.00 0.00 0.00 82 1011.4
20260508041648 49 179 0.0 4.0 0.00 0.00 0.00 82 1011.4
20260508041145 49 172 2.0 2.0 0.00 0.00 0.00 81 1011.1
20260508040641 50 343 4.0 6.0 0.00 0.00 0.00 78 1011.2
20260508040139 50 233 2.0 4.0 0.00 0.00 0.00 77 1011.2
20260508035636 51 195 0.0 6.0 0.00 0.00 0.00 76 1010.9
20260508035133 51 197 3.0 9.0 0.00 0.00 0.00 75 1011.1
20260508034630 51 210 5.0 8.0 0.00 0.00 0.00 75 1011.0
20260508034127 52 207 5.0 10.0 0.00 0.00 0.00 74 1011.0
20260508033624 51 215 8.0 11.0 0.00 0.00 0.00 74 1010.9
20260508033123 51 228 4.0 8.0 0.00 0.00 0.00 73 1011.0
20260508032618 52 224 4.0 9.0 0.00 0.00 0.00 73 1011.1
20260508032116 51 215 5.0 9.0 0.00 0.00 0.00 73 1010.8
20260508031613 51 201 4.0 9.0 0.00 0.00 0.00 72 1010.8
20260508031109 51 204 4.0 6.0 0.00 0.00 0.00 72 1010.9
20260508030606 51 185 3.0 5.0 0.00 0.00 0.00 71 1010.8
20260508030104 52 223 2.0 6.0 0.00 0.00 0.00 70 1010.9
20260508025559 52 196 4.0 5.0 0.00 0.00 0.00 70 1010.9
20260508025057 52 157 3.0 7.0 0.00 0.00 0.00 70 1011.1
20260508024553 51 192 3.0 7.0 0.00 0.00 0.00 72 1010.9
20260508024050 51 185 3.0 6.0 0.00 0.00 0.00 73 1011.0
20260508023546 50 188 3.0 5.0 0.00 0.00 0.00 73 1011.0
20260508023044 50 186 2.0 6.0 0.00 0.00 0.00 73 1011.0
20260508022540 50 200 3.0 6.0 0.00 0.00 0.00 74 1010.9
20260508022037 51 196 2.0 5.0 0.00 0.00 0.00 73 1010.9
20260508021532 51 150 2.0 6.0 0.00 0.00 0.00 74 1010.9
20260508021028 51 143 4.0 5.0 0.00 0.00 0.00 74 1010.7
20260508020526 51 149 3.0 5.0 0.00 0.00 0.00 74 1010.6
20260508020024 51 180 3.0 4.0 0.00 0.00 0.00 73 1010.8
20260508015521 51 144 2.0 4.0 0.00 0.00 0.00 72 1010.8
20260508015018 51 152 2.0 4.0 0.00 0.00 0.00 71 1010.6
20260508014514 51 170 2.0 4.0 0.00 0.00 0.00 70 1010.7
20260508014011 51 159 3.0 3.0 0.00 0.00 0.00 69 1010.7
20260508013507 51 130 1.0 3.0 0.00 0.00 0.00 70 1010.3
20260508013005 52 123 0.0 4.0 0.00 0.00 0.00 68 1010.6
20260508012502 52 139 2.0 3.0 0.00 0.00 0.00 67 1010.3
20260508011959 53 170 1.0 3.0 0.00 0.00 0.00 66 1010.2
20260508011457 53 147 2.0 3.0 0.00 0.00 0.00 66 1010.3
20260508010954 53 174 3.0 3.0 0.00 0.00 0.00 65 1010.2
20260508010451 53 187 2.0 3.0 0.00 0.00 0.00 64 1010.4
20260508005948 54 184 2.0 3.0 0.00 0.00 0.00 64 1010.2
20260508005444 54 145 1.0 3.0 0.00 0.00 0.00 64 1010.0
20260508004941 54 190 1.0 4.0 0.00 0.00 0.00 63 1010.0
20260508004437 55 183 2.0 3.0 0.00 0.00 0.00 62 1010.1
20260508003934 55 199 1.0 4.0 0.00 0.00 0.00 61 1010.1
20260508003431 56 210 3.0 4.0 0.00 0.00 0.00 61 1010.0
20260508002928 56 213 2.0 3.0 0.02 0.00 0.00 62 1010.1
20260508002425 56 187 2.0 3.0 0.02 0.00 0.00 62 1010.1
20260508001920 56 202 0.0 2.0 0.00 0.00 0.00 61 1010.1
20260508001417 57 226 0.0 2.0 0.00 0.00 0.00 60 1010.0
20260508000914 58 174 0.0 2.0 0.00 0.00 0.00 58 1010.1
20260508000412 59 246 0.0 3.0 0.00 0.00 0.00 56 1010.3
20260507235907 58 228 1.0 5.0 0.00 0.00 0.00 56 1010.0
20260507235404 58 285 2.0 3.0 0.00 0.00 0.00 58 1009.9
20260507234901 59 233 1.0 4.0 0.00 0.00 0.00 57 1010.1
20260507234359 59 224 0.0 2.0 0.00 0.00 0.00 61 1010.1
20260507233854 57 296 1.0 3.0 0.00 0.00 0.00 63 1010.2
20260507233351 56 89 0.0 2.0 0.00 0.00 0.00 67 1010.5
20260507232849 57 19 0.0 3.0 0.00 0.00 0.00 66 1010.1
20260507232345 58 331 0.0 5.0 0.00 0.00 0.00 65 1010.1
20260507231843 58 15 2.0 3.0 0.00 0.00 0.00 67 1010.4
20260507231339 57 309 1.0 5.0 0.00 0.00 0.00 68 1010.1
20260507230835 55 358 5.0 5.0 0.00 0.00 0.00 69 1010.2
20260507230333 55 325 2.0 4.0 0.00 0.00 0.00 74 1010.0
20260507225833 53 314 3.0 8.0 0.00 0.00 0.00 72 1010.3
20260507225329 53 351 3.0 8.0 0.00 0.00 0.00 72 1010.5
20260507224825 53 325 1.0 11.0 0.00 0.00 0.00 71 1010.2
20260507224322 52 306 0.0 12.0 0.00 0.00 0.00 72 1010.2
20260507223818 53 11 4.0 14.0 0.00 0.00 0.00 67 1010.6
20260507223314 55 17 5.0 11.0 0.00 0.00 0.00 61 1010.8
20260507222812 60 267 10.0 23.0 0.00 0.00 0.00 50 1010.2
20260507222308 60 255 4.0 19.0 0.00 0.00 0.00 51 1010.0
20260507221805 59 249 9.0 19.0 0.00 0.00 0.00 53 1010.2
20260507221302 59 238 9.0 20.0 0.00 0.00 0.00 55 1010.0
20260507220757 59 242 6.0 15.0 0.00 0.00 0.00 57 1010.2
20260507220256 59 242 7.0 19.0 0.00 0.00 0.00 57 1010.3
20260507215752 59 235 11.0 18.0 0.00 0.00 0.00 57 1010.5
20260507215250 59 233 8.0 17.0 0.00 0.00 0.00 57 1010.1
20260507214747 59 251 10.0 20.0 0.00 0.00 0.00 57 1010.2
20260507214244 59 234 13.0 26.0 0.00 0.00 0.00 57 1010.5
20260507213739 60 224 6.0 22.0 0.00 0.00 0.00 56 1010.3
20260507213236 59 208 8.0 15.0 0.00 0.00 0.00 58 1010.3
20260507212733 59 232 5.0 21.0 0.00 0.00 0.00 56 1010.4
20260507212229 59 205 3.0 19.0 0.00 0.00 0.00 57 1010.2
20260507211726 58 232 6.0 20.0 0.00 0.00 0.00 57 1010.4
20260507211222 58 216 7.0 18.0 0.00 0.00 0.00 56 1010.5
20260507210719 58 245 9.0 19.0 0.00 0.00 0.00 56 1010.7
20260507210216 59 268 5.0 24.0 0.00 0.00 0.00 53 1010.5
20260507205712 59 223 5.0 19.0 0.00 0.00 0.00 55 1010.4
20260507205209 59 245 4.0 19.0 0.00 0.00 0.00 55 1010.6
20260507204705 59 235 11.0 21.0 0.00 0.00 0.00 56 1010.8
20260507204203 58 220 8.0 19.0 0.00 0.00 0.00 56 1010.6
20260507203701 58 227 5.0 20.0 0.00 0.00 0.00 58 1010.9
20260507203158 58 247 5.0 24.0 0.00 0.00 0.00 57 1010.9
20260507202654 57 238 11.0 24.0 0.00 0.00 0.00 57 1011.0
20260507202150 58 248 10.0 23.0 0.00 0.00 0.00 58 1011.3
20260507201645 57 239 7.0 24.0 0.00 0.00 0.00 58 1011.4
20260507201142 58 221 9.0 17.0 0.00 0.00 0.00 56 1011.5
20260507200638 57 250 11.0 22.0 0.00 0.00 0.00 57 1011.6
20260507200135 58 240 5.0 17.0 0.00 0.00 0.00 57 1011.5
20260507195632 57 226 9.0 25.0 0.00 0.00 0.00 58 1011.8
20260507195129 56 235 15.0 22.0 0.00 0.00 0.00 58 1012.0
20260507194626 56 233 9.0 28.0 0.00 0.00 0.00 59 1012.3
20260507194121 56 267 6.0 30.0 0.00 0.00 0.00 60 1012.2
20260507193618 57 250 13.0 16.0 0.00 0.00 0.00 58 1012.3
20260507193115 56 226 5.0 12.0 0.00 0.00 0.00 60 1012.3
20260507192611 55 229 9.0 22.0 0.00 0.00 0.00 59 1012.5
20260507192108 55 251 9.0 35.0 0.00 0.00 0.00 58 1012.4
20260507191604 56 253 7.0 25.0 0.00 0.00 0.00 58 1012.5
20260507191101 56 226 6.0 19.0 0.00 0.00 0.00 58 1012.5
20260507190558 56 236 20.0 28.0 0.00 0.00 0.00 57 1012.7
20260507190057 56 233 5.0 17.0 0.00 0.00 0.00 58 1012.9
20260507185555 56 244 12.0 24.0 0.00 0.00 0.00 57 1012.7
20260507185051 55 236 7.0 22.0 0.00 0.00 0.00 57 1012.6
20260507184550 56 211 9.0 24.0 0.00 0.00 0.00 52 1012.5
20260507184047 56 245 5.0 30.0 0.00 0.00 0.00 50 1012.5
20260507183543 56 213 15.0 31.0 0.00 0.00 0.00 47 1012.4
20260507183040 58 266 11.0 18.0 0.00 0.00 0.00 46 1012.4
20260507182536 57 234 5.0 18.0 0.00 0.00 0.00 47 1012.4
20260507182032 57 249 9.0 16.0 0.00 0.00 0.00 46 1012.5
20260507181530 58 237 7.0 19.0 0.00 0.00 0.00 44 1012.4
20260507181026 58 241 11.0 13.0 0.00 0.00 0.00 45 1012.5
20260507180522 57 253 8.0 22.0 0.00 0.00 0.00 46 1012.6
20260507180019 57 243 8.0 27.0 0.00 0.00 0.00 44 1012.7
20260507175515 57 244 4.0 14.0 0.00 0.00 0.00 42 1013.0
20260507175013 56 221 6.0 24.0 0.00 0.00 0.00 43 1012.9
20260507174510 55 202 2.0 16.0 0.00 0.00 0.00 47 1013.0
20260507174008 55 287 7.0 13.0 0.00 0.00 0.00 46 1013.4
20260507173504 56 247 8.0 19.0 0.00 0.00 0.00 44 1013.4
20260507173002 57 256 9.0 14.0 0.00 0.00 0.00 41 1013.3
20260507172457 57 207 14.0 24.0 0.00 0.00 0.00 40 1013.2
20260507171954 57 229 4.0 17.0 0.00 0.00 0.00 41 1013.5
20260507171450 58 233 5.0 8.0 0.00 0.00 0.00 43 1013.6
20260507170947 57 220 10.0 15.0 0.00 0.00 0.00 42 1013.5
20260507170444 57 160 4.0 13.0 0.00 0.00 0.00 43 1013.7
20260507165940 58 201 12.0 12.0 0.00 0.00 0.00 42 1013.8
20260507165436 58 205 3.0 11.0 0.00 0.00 0.00 42 1013.7
20260507164932 57 252 3.0 17.0 0.00 0.00 0.00 42 1014.1
20260507164429 59 220 6.0 9.0 0.00 0.00 0.00 41 1014.0
20260507163926 57 250 7.0 8.0 0.00 0.00 0.00 40 1013.9
20260507163424 57 227 7.0 11.0 0.00 0.00 0.00 44 1014.1
20260507162920 56 209 2.0 14.0 0.00 0.00 0.00 42 1014.3
20260507162415 56 308 4.0 13.0 0.00 0.00 0.00 43 1014.2